Location: Austin
(30.3000°N, 97.7500°W)
Time: 01:18:02
(UTC-05:00)

NOSS 2-2 (D) - Pass Details

Date: 15 May 2024
Orbit: 405 x 1750 km, 63.3° (Epoch: 19 May)

Event Time Altitude Azimuth Distance (km) Brightness Sun altitude
Rises 21:42:08 0° 335° (NNW) 3,017 8.1 -16.6°
Reaches altitude 10° 21:44:10 10° 339° (NNW) 2,252 7.3 -17.0°
Maximum altitude 21:49:20 66° 61° (ENE) 1,021 4.5 -17.9°
Enters shadow 21:53:03 29° 135° (SE) 1,883 5.4 -18.5°
